Regional Weather Roundup
Issued by NWS

Home | Current Version | Previous Version | Graphics & Text | Print | Product List | Glossary On
Versions: 1 2 3 4 5 6 7 8 9 10 11 12 13 14 15 16 17 18 19 20 21 22 23 24 25 26 27 28 29 30 31 32 33 34 35 36 37 38 39 40 41 42 43 44 45 46 47 48 49 50
909
ASUS43 KMKX 250000
RWRWI

WISCONSIN REGIONAL WEATHER ROUNDUP
NATIONAL WEATHER SERVICE MILWAUKEE/SULLIVAN WI
700 PM CDT SUN SEP 24 2017

NOTE: "FAIR" INDICATES FEW OR NO CLOUDS BELOW 12,000 FEET WITH NO
SIGNIFICANT WEATHER AND/OR OBSTRUCTIONS TO VISIBILITY.

WIZ001-002-006>008-014>016-023>028-250100-
NORTHWEST WISCONSIN

CITY           SKY/WX    TMP DP  RH WIND       PRES   REMARKS
SUPERIOR ARPT  PTCLDY    65  64  97 CALM      29.84F
ASHLAND        CLEAR     78  63  59 S6        29.87S HX  80
6HR MIN TEMP:  78; 6HR MAX TEMP:  89;

HAYWARD        CLEAR     77  64  64 SE6       29.89F
6HR MIN TEMP:  77; 6HR MAX TEMP:  85;

SIREN          CLEAR     81  64  55 S8        29.86S HX  82
CUMBERLAND     CLEAR     77  63  61 SE8       29.89S
RICE LAKE      CLEAR     80  63  55 SE6       29.91R HX  82
CHETEK         CLEAR     80  66  62 S7        29.90S HX  82
LADYSMITH      CLEAR     80  62  53 SE6       29.94S HX  82
EAU CLAIRE     NOT AVBL
MENOMONIE      CLEAR     81  64  55 SE7       29.89S HX  82
NEW RICHMOND   CLEAR     82  61  49 SE7       29.88R HX  82
OSCEOLA        CLEAR     82  61  49 SE7       29.88S HX  83
$$

WIZ003>005-009-010-017-018-250100-
NORTH CENTRAL WISCONSIN

CITY           SKY/WX    TMP DP  RH WIND       PRES   REMARKS
MANITOWISH WTR NOT AVBL
ARBOR VITAE    CLEAR     80  63  56 S5        29.97F HX  81
WOODRUFF       CLEAR     80  63  56 S5        29.97F HX  81
RHINELANDER    CLEAR     77  59  53 S3        29.99F
6HR MIN TEMP:  77; 6HR MAX TEMP:  87;

EAGLE RIVER    CLEAR     78  58  50 S3        29.98S
LAND O LAKES   CLEAR     79  58  48 S3        30.00S HX  80
PHILLIPS       CLEAR     75  61  60 S6        29.94F
6HR MIN TEMP:  75; 6HR MAX TEMP:  85;

TOMAHAWK       CLEAR     74  60  62 CALM      29.98S
MEDFORD        CLEAR     75  60  60 S7        29.97S
MERRILL        CLEAR     81  58  46 S5        29.98S HX  81
$$

WIZ029-030-035-036-043>047-250100-
CENTRAL WISCONSIN

CITY           SKY/WX    TMP DP  RH WIND       PRES   REMARKS
WAUSAU         CLEAR     79  60  52 SE8       29.95F HX  80
6HR MIN TEMP:  79; 6HR MAX TEMP:  87;

MOSINEE        PTCLDY    77  61  57 SE5       29.98F
MARSHFIELD     CLEAR     78  60  53 S5        29.97R
6HR MIN TEMP:  78; 6HR MAX TEMP:  88;

STEVENS POINT  CLEAR     78  60  54 SE6       29.98F
WAUPACA        CLEAR     82  62  51 SE5       29.98S HX  83
WAUTOMA        CLEAR     76  65  68 SE3       29.98S
6HR MIN TEMP:  76; 6HR MAX TEMP:  90;

WISC RAPIDS    CLEAR     80  61  52 S3        29.97F HX  81
6HR MIN TEMP:  80; 6HR MAX TEMP:  90;

CAMP DOUGLAS   NOT AVBL
$$

WIZ011>013-019>022-031-037>040-048>050-250100-
NORTHEAST WISCONSIN

CITY           SKY/WX    TMP DP  RH WIND       PRES   REMARKS
ANTIGO         CLEAR     76  64  65 S7        30.01S
SHAWANO        CLEAR     83  62  49 CALM      29.98S HX  84
OCONTO         CLEAR     78  66  66 SE7       29.99S HX  80
STURGEON BAY   CLEAR     73  64  73 S8        30.01F
6HR MIN TEMP:  73; 6HR MAX TEMP:  87;

GREEN BAY      CLEAR     79  67  66 S8        29.99S HX  81
6HR MIN TEMP:  79; 6HR MAX TEMP:  90;

MANITOWOC      NOT AVBL
APPLETON       PTCLDY    79  57  47 VRB5      29.98F HX  80
CLINTONVILLE   CLEAR     81  61  50 S5        29.98S HX  81
OSHKOSH        CLEAR     79  66  64 SE8       29.99S HX  81
6HR MIN TEMP:  78; 6HR MAX TEMP:  88;

$$

WIZ032>034-041-042-053>061-250100-
SOUTHWEST WISCONSIN

CITY           SKY/WX    TMP DP  RH WIND       PRES   REMARKS
LA CROSSE      CLEAR     85  63  47 SE7       29.91S HX  86
6HR MIN TEMP:  85; 6HR MAX TEMP:  93;

SPARTA         CLEAR     81  62  51 SE5       29.95S HX  82
VIROQUA        CLEAR     80  64  57 SE8       29.97S HX  82
BOSCOBEL       CLEAR     83  63  50 VRB3      29.95S HX  84
6HR MIN TEMP:  83; 6HR MAX TEMP:  93;

PRAIRIE DU CHI CLEAR     84  59  42 SE7       29.93S HX  84
PLATTEVILLE    CLEAR     82  62  51 SE5       29.98F HX  83
$$

WIZ056-057-062-063-064-067-068-250100-
SOUTH CENTRAL WISCONSIN

CITY           SKY/WX    TMP DP  RH WIND       PRES   REMARKS
REEDSBURG      CLEAR     81  61  50 S3        29.96F HX  82
BARABOO/DELLS  CLEAR     79  58  47 S5        29.98S HX  80
LONE ROCK      NOT AVBL
MINERAL POINT  CLEAR     81  61  50 SE5       29.99F HX  81
MADISON        CLEAR     82  60  47 S5        29.98S HX  82
6HR MIN TEMP:  82; 6HR MAX TEMP:  89;

MIDDLETON      CLEAR     84  58  40 S3        29.99F HX  83
WATERTOWN      CLEAR     81  61  50 S5        29.99S HX  82
MONROE         CLEAR     82  57  42 S6        29.99F HX  82
JANESVILLE     CLEAR     84  55  37 S8        29.99S HX  83
$$

WIZ051-052-058>065-066-070>072-250100-
SOUTHEAST WISCONSIN

CITY           SKY/WX    TMP DP  RH WIND       PRES   REMARKS
MILWAUKEE      PTCLDY    81  60  48 S7        30.01S HX  82
6HR MIN TEMP:  80; 6HR MAX TEMP:  90;

WAUKESHA       CLEAR     79  57  47 SE12      30.03R HX  80
MILWAUKEE/TIMM CLEAR     81  55  41 S6        30.02S HX  80
RACINE         CLEAR     79  62  56 S7        30.03S HX  80
6HR MIN TEMP:  79; 6HR MAX TEMP:  88;

BURLINGTON     CLEAR     79  63  57 SE6       30.02R HX  81
KENOSHA        CLEAR     79  61  53 SE6       30.02S HX  80
6HR MIN TEMP:  79; 6HR MAX TEMP:  92;

FOND DU LAC    CLEAR     80  63  55 SE7       29.99F HX  81
6HR MIN TEMP:  80; 6HR MAX TEMP:  89;

SHEBOYGAN      CLEAR     75  66  73 S6        30.01S
6HR MIN TEMP:  75; 6HR MAX TEMP:  89;

WEST BEND        N/A     79  59  50 SE6       30.02R HX  80
JUNEAU         CLEAR     79  63  58 SE6       30.01S HX  81
$$

LSZ147-162-250100-
LAKE SUPERIOR

STATION/POSITION TIME  TEMP    WIND        PRES    WAVE
                       AIR SEA DIR/SP/G            HT/PER
                 (UTC) (F)     (DEG/KT/KT) (MB)    (FT/S)
W MID LAKE BUOY  2250   65 58  110/  6/  6 1011.2F   0
DEVILS ISLAND    2300   69     110/ 10/ 11 1010.6F
SAXON HARBOR     2330   75     170/  1/  3 1011.2F
$$

LMZ867-665-643>646-250100-
LAKE MICHIGAN

STATION/POSITION TIME  TEMP    WIND        PRES    WAVE
                       AIR SEA DIR/SP/G            HT/PER
                 (UTC) (F)     (DEG/KT/KT) (MB)    (FT/S)
S GREEN BAY BUOY 2330   77 71  160/ 10/ 12 1015.3R
N MID LAKE BUOY  2250   71 67  200/ 10/ 12 1016.6F   1/ 3
NORTHPORT PIER   2340   74     160/  6/ 10 1015.6F
KEWAUNEE LAKESHO 2330   68     180/  9/  9 1015.6F
SHEBOYGAN LAKESH 2300   74     180/ 11/ 12 1015.7F
PORT WASHINGTON  2340   73     200/  3/  6 1016.9S
ATWATER BUOY     2209   70 63  180/  8/ 10 1016.6S
MILWAUKEE LAKESH 2330   72     150/  9/ 10   N/A
S MID LAKE BUOY  2250   78 72  160/  2/  2 1016.6F   0
KENOSHA   LAKESH 2300   78     170/  4/  5 1015.9
$$

TC  - TEMPERATURE IN CELSIUS
VSB - VISIBILITY IN STATUTE MILES
WCI - WIND CHILL INDEX
HX  - HEAT INDEX





USA.gov is the U.S. government's official web portal to all federal, state and local government web resources and services.